Погода в Плоском

Россия / Вологодская область     58°38′27″N   40°16′55″E
темп.,
°C
ветер,
м/с
пор.,
м/с
влажн.,
%
обл.,
%
осадки,
мм/ч
давл.,
гПа
погр.,
м
13 июня, вс
вс1300:00+15юв288594 0.0 1007203
03:00+14юв279538 0.0 1007202
06:00+15юв378868 0.0 1006285
09:00+20ююв457095 0.0 1006966
12:00+21ю357272 1.3 10061260
15:00+21ююз347615 3.6 10061004
18:00+21ююз33715 0.4 1006790
21:00+16ююз22935 1.1 100716
14 июня, пн
пн1400:00+14юз229598 0.0 100815
03:00+13юз229686 0.0 100925
06:00+16юз249119 0.0 1010129
09:00+21зюз347229 0.5 1011386
12:00+24юз454816 1.1 10121696
15:00+25зюз354197 1.1 10122510
18:00+23зюз3555100 0.0 1012548
21:00+17ссв11917 0.7 101311
15 июня, вт
вт1500:00+15ссз119629 0.1 101411
03:00+13с11985 0.1 101418
06:00+16ссв11925 0.0 101491
09:00+22ююз126612 0.0 1013689
12:00+22юз347148 0.9 10121177
15:00+23юз35644 2.3 10101089
18:00+21юз368469 1.0 1009235
21:00+17юз229093 1.3 100922
16 июня, ср
ср1600:00+17зюз2586100 0.0 100999
03:00+15з268484 0.0 1008123
06:00+15ссз37744 0.0 1009275
09:00+17сз4771100 0.1 1010703
12:00+20сз47494 0.1 10111681
15:00+18ссз484834 0.2 1012945
18:00+19сз484274 0.0 10132805
21:00+13сз38660 0.0 1015194
17 июня, чт
чт1700:00+9зсз311620 0.0 1017225
03:00+7зсз26694 0.0 1019121
06:00+11ссз36640 0.0 1020216
09:00+17ссз35470 0.0 10211139
12:00+19ссз46385 0.0 10222147
15:00+20ссз46345 0.0 10222315
18:00+19ссз36400 0.0 10231696
21:00+12сз28610 0.0 1025132